ITA3655 LIMJ-LOWW

Flight info

Callsign ITA3655
Flight time 1h 10m
Altitude 34000
Route GEN DCT MONEB DCT OSKOR DCT NESTI/N0454F330 DCT ARALD DCT ABTAN ABTAN2W
Aircraft A339/H-SADE1E2E3GHIJ3J5M1P2RWXY/LB2D1

Departure

Time 2026-04-26 19:10
Airport Genoa Cristoforo Colombo Airport (LIMJ)

Arrival

Time 2026-04-26 20:21
Airport Vienna International Airport (LOWW)
Time Latitude Longitude Altitude Speed Heading
2026-04-26 18:34 44.41428 8.84945 29 ft 0 kts 60°
2026-04-26 18:36 44.41433 8.84958 27 ft 0 kts 60°
2026-04-26 19:02 44.41430 8.84950 28 ft 4 kts 59°
2026-04-26 19:02 44.41426 8.84939 29 ft 4 kts 58°
2026-04-26 19:03 44.41404 8.84897 29 ft 4 kts 32°
2026-04-26 19:03 44.41387 8.84885 29 ft 4 kts 47°
2026-04-26 19:03 44.41374 8.84862 29 ft 4 kts 90°
2026-04-26 19:03 44.41376 8.84826 29 ft 4 kts 104°
2026-04-26 19:04 44.41378 8.84817 29 ft 0 kts 105°
2026-04-26 19:06 44.41378 8.84818 29 ft 0 kts 105°
2026-04-26 19:06 44.41375 8.84862 29 ft 11 kts 94°
2026-04-26 19:07 44.41352 8.84999 26 ft 16 kts 103°
2026-04-26 19:07 44.41307 8.85158 28 ft 19 kts 112°
2026-04-26 19:07 44.41284 8.85229 28 ft 1 kts 118°
2026-04-26 19:07 44.41269 8.85259 29 ft 6 kts 125°
2026-04-26 19:08 44.41226 8.85284 28 ft 7 kts 168°
2026-04-26 19:08 44.41169 8.85267 23 ft 11 kts 192°
2026-04-26 19:08 44.41111 8.85243 25 ft 0 kts 199°
2026-04-26 19:09 44.41110 8.85243 21 ft 1 kts 199°
2026-04-26 19:09 44.41104 8.85240 21 ft 4 kts 199°
2026-04-26 19:09 44.41064 8.85203 21 ft 10 kts 224°
2026-04-26 19:09 44.41019 8.85141 19 ft 5 kts 251°
2026-04-26 19:10 44.41026 8.85051 24 ft 27 kts 282°
2026-04-26 19:10 44.41182 8.84245 32 ft 140 kts 284°
2026-04-26 19:10 44.41480 8.82715 681 ft 174 kts 285°
2026-04-26 19:10 44.41570 8.81005 1721 ft 182 kts 257°
2026-04-26 19:11 44.40910 8.79425 2503 ft 196 kts 219°
2026-04-26 19:11 44.39680 8.78695 3561 ft 193 kts 184°
2026-04-26 19:11 44.38386 8.79104 4606 ft 193 kts 149°
2026-04-26 19:11 44.37231 8.80116 5514 ft 205 kts 147°
2026-04-26 19:12 44.35964 8.81082 6480 ft 209 kts 158°
2026-04-26 19:12 44.34551 8.81531 7522 ft 208 kts 171°
2026-04-26 19:12 44.33095 8.81732 8473 ft 214 kts 177°
2026-04-26 19:12 44.31578 8.81760 9365 ft 222 kts 180°
2026-04-26 19:13 44.30016 8.81634 10235 ft 227 kts 185°
2026-04-26 19:13 44.28446 8.81412 11155 ft 226 kts 186°
2026-04-26 19:13 44.26860 8.81205 11993 ft 230 kts 184°
2026-04-26 19:13 44.25251 8.81047 12837 ft 234 kts 183°
2026-04-26 19:14 44.23613 8.80928 13644 ft 238 kts 182°
2026-04-26 19:14 44.21949 8.80830 14268 ft 241 kts 182°
2026-04-26 19:14 44.20263 8.80740 14741 ft 243 kts 182°
2026-04-26 19:14 44.19118 8.80678 15069 ft 244 kts 182°
2026-04-26 19:15 44.16860 8.80555 15711 ft 246 kts 183°
2026-04-26 19:15 44.15187 8.80096 16101 ft 247 kts 206°
2026-04-26 19:15 44.13856 8.78640 16553 ft 245 kts 234°
2026-04-26 19:15 44.13186 8.76500 16977 ft 243 kts 263°
2026-04-26 19:16 44.13213 8.74147 17291 ft 249 kts 278°
2026-04-26 19:16 44.13562 8.71699 17387 ft 267 kts 291°
2026-04-26 19:16 44.14500 8.69395 17551 ft 283 kts 310°
2026-04-26 19:16 44.16049 8.67615 17836 ft 296 kts 332°
2026-04-26 19:17 44.18024 8.66783 18388 ft 301 kts 354°
2026-04-26 19:17 44.20127 8.66874 18860 ft 305 kts
2026-04-26 19:17 44.22249 8.67154 19312 ft 309 kts 12°
2026-04-26 19:17 44.24221 8.68384 19785 ft 316 kts 36°
2026-04-26 19:18 44.25726 8.70636 20246 ft 322 kts 55°
2026-04-26 19:18 44.26934 8.73342 20424 ft 336 kts 59°
2026-04-26 19:18 44.28153 8.76265 20554 ft 351 kts 59°
2026-04-26 19:18 44.29422 8.79257 20684 ft 365 kts 58°
2026-04-26 19:19 44.30751 8.82297 20821 ft 378 kts 58°
2026-04-26 19:19 44.32166 8.85466 20946 ft 391 kts 57°
2026-04-26 19:19 44.33636 8.88729 21074 ft 403 kts 57°
2026-04-26 19:19 44.35163 8.92111 21439 ft 408 kts 57°
2026-04-26 19:20 44.36680 8.95476 21882 ft 411 kts 57°
2026-04-26 19:20 44.37693 8.97723 22177 ft 413 kts 57°
2026-04-26 19:20 44.39751 9.02302 22759 ft 418 kts 57°
2026-04-26 19:20 44.41302 9.05756 23205 ft 421 kts 57°
2026-04-26 19:21 44.42866 9.09239 23641 ft 425 kts 57°
2026-04-26 19:21 44.44723 9.12453 24033 ft 425 kts 43°
2026-04-26 19:21 44.47073 9.14945 24459 ft 425 kts 28°
2026-04-26 19:21 44.49773 9.16608 24871 ft 424 kts 17°
2026-04-26 19:22 44.52574 9.17938 25256 ft 427 kts 18°
2026-04-26 19:22 44.55336 9.19501 25666 ft 430 kts 22°
2026-04-26 19:22 44.58029 9.21359 26064 ft 433 kts 26°
2026-04-26 19:22 44.60668 9.23411 26464 ft 435 kts 28°
2026-04-26 19:23 44.63288 9.25569 26868 ft 437 kts 29°
2026-04-26 19:23 44.65908 9.27772 27262 ft 439 kts 30°
2026-04-26 19:23 44.68530 9.29985 27665 ft 441 kts 30°
2026-04-26 19:23 44.71169 9.32209 27977 ft 444 kts 29°
2026-04-26 19:24 44.73827 9.34443 28347 ft 446 kts 29°
2026-04-26 19:24 44.76498 9.36687 28692 ft 449 kts 29°
2026-04-26 19:24 44.81884 9.41214 29363 ft 453 kts 29°
2026-04-26 19:25 44.84593 9.43495 29689 ft 455 kts 29°
2026-04-26 19:25 44.86395 9.45014 29890 ft 457 kts 29°
2026-04-26 19:25 44.90049 9.48097 30346 ft 459 kts 29°
2026-04-26 19:25 44.92798 9.50420 30624 ft 462 kts 29°
2026-04-26 19:26 44.95563 9.52759 30917 ft 464 kts 29°
2026-04-26 19:26 44.98335 9.55106 31221 ft 466 kts 29°
2026-04-26 19:26 45.01127 9.57474 31454 ft 470 kts 28°
2026-04-26 19:26 45.03940 9.59862 31743 ft 472 kts 28°
2026-04-26 19:27 45.06758 9.62256 32068 ft 473 kts 28°
2026-04-26 19:27 45.09585 9.64661 32414 ft 474 kts 28°
2026-04-26 19:27 45.12422 9.67077 32640 ft 477 kts 28°
2026-04-26 19:27 45.15269 9.69505 32861 ft 479 kts 28°
2026-04-26 19:28 45.18127 9.71946 33058 ft 481 kts 27°
2026-04-26 19:28 45.21004 9.74406 33180 ft 484 kts 27°
2026-04-26 19:28 45.23889 9.76875 33373 ft 485 kts 27°
2026-04-26 19:28 45.26777 9.79349 33537 ft 486 kts 27°
2026-04-26 19:29 45.29674 9.81835 33719 ft 486 kts 27°
2026-04-26 19:29 45.32570 9.84323 33912 ft 486 kts 27°
2026-04-26 19:29 45.35425 9.86778 34083 ft 487 kts 27°
2026-04-26 19:29 45.38325 9.89272 34068 ft 488 kts 27°
2026-04-26 19:30 45.44155 9.94298 34075 ft 487 kts 27°
2026-04-26 19:30 45.48968 9.98459 34075 ft 487 kts 27°
2026-04-26 19:31 45.55699 10.04290 34084 ft 487 kts 27°
2026-04-26 19:31 45.61481 10.09315 34092 ft 487 kts 28°
2026-04-26 19:32 45.67269 10.14358 34107 ft 487 kts 28°
2026-04-26 19:32 45.72285 10.18732 34164 ft 487 kts 28°
2026-04-26 19:33 45.78064 10.23783 34155 ft 486 kts 28°
2026-04-26 19:33 45.83826 10.28842 34192 ft 485 kts 29°
2026-04-26 19:34 45.88889 10.35310 34195 ft 495 kts 50°
2026-04-26 19:34 45.90729 10.39500 34196 ft 499 kts 62°
2026-04-26 19:34 45.92122 10.44064 34184 ft 499 kts 66°
2026-04-26 19:35 45.94658 10.53342 34228 ft 499 kts 67°
2026-04-26 19:35 45.97241 10.62594 34217 ft 498 kts 66°
2026-04-26 19:36 45.98996 10.68783 34228 ft 499 kts 66°
2026-04-26 19:36 46.02482 10.81074 34230 ft 499 kts 66°
2026-04-26 19:37 46.05094 10.90328 34280 ft 499 kts 66°
2026-04-26 19:37 46.07657 10.99448 34260 ft 499 kts 66°
2026-04-26 19:38 46.10247 11.08702 34256 ft 498 kts 67°
2026-04-26 19:38 46.12823 11.17961 34258 ft 498 kts 66°
2026-04-26 19:39 46.15403 11.27237 34208 ft 498 kts 66°
2026-04-26 19:39 46.17976 11.36522 34190 ft 499 kts 67°
2026-04-26 19:40 46.20558 11.45886 34176 ft 499 kts 67°
2026-04-26 19:40 46.23100 11.55142 34164 ft 499 kts 67°
2026-04-26 19:41 46.25649 11.64458 34144 ft 499 kts 67°
2026-04-26 19:41 46.27350 11.70700 34148 ft 499 kts 67°
2026-04-26 19:42 46.30725 11.83127 34133 ft 499 kts 67°
2026-04-26 19:42 46.32841 11.90948 34138 ft 498 kts 67°
2026-04-26 19:43 46.35768 12.01810 34130 ft 498 kts 67°
2026-04-26 19:43 46.38277 12.11163 34127 ft 498 kts 68°
2026-04-26 19:44 46.40775 12.20517 34141 ft 498 kts 68°
2026-04-26 19:44 46.42862 12.28361 34144 ft 498 kts 68°
2026-04-26 19:45 46.45322 12.37731 34141 ft 496 kts 68°
2026-04-26 19:45 46.47903 12.47032 34131 ft 497 kts 66°
2026-04-26 19:46 46.50477 12.56350 34139 ft 498 kts 67°
2026-04-26 19:46 46.52999 12.65710 34128 ft 498 kts 68°
2026-04-26 19:47 46.55080 12.73513 33847 ft 498 kts 68°
2026-04-26 19:47 46.56747 12.79785 33484 ft 497 kts 68°
2026-04-26 19:47 46.57992 12.84478 33217 ft 498 kts 68°
2026-04-26 19:48 46.59236 12.89177 32944 ft 498 kts 68°
2026-04-26 19:48 46.60478 12.93874 32672 ft 498 kts 68°
2026-04-26 19:48 46.61719 12.98579 32415 ft 499 kts 68°
2026-04-26 19:48 46.62959 13.03291 32149 ft 499 kts 68°
2026-04-26 19:49 46.64198 13.08011 31903 ft 499 kts 68°
2026-04-26 19:49 46.65434 13.12727 31651 ft 498 kts 68°
2026-04-26 19:49 46.66664 13.17429 31390 ft 496 kts 68°
2026-04-26 19:49 46.67887 13.22114 31202 ft 494 kts 68°
2026-04-26 19:50 46.69105 13.26786 31076 ft 493 kts 68°
2026-04-26 19:50 46.70319 13.31457 30960 ft 493 kts 68°
2026-04-26 19:50 46.71528 13.36117 30831 ft 491 kts 68°
2026-04-26 19:50 46.72734 13.40773 30714 ft 491 kts 68°
2026-04-26 19:51 46.73936 13.45425 30587 ft 489 kts 68°
2026-04-26 19:51 46.75132 13.50061 30468 ft 489 kts 68°
2026-04-26 19:51 46.76324 13.54693 30337 ft 486 kts 68°
2026-04-26 19:51 46.77503 13.59282 30214 ft 481 kts 68°
2026-04-26 19:52 46.78673 13.63846 30093 ft 481 kts 68°
2026-04-26 19:52 46.79846 13.68426 29963 ft 482 kts 69°
2026-04-26 19:52 46.81016 13.73007 29810 ft 480 kts 69°
2026-04-26 19:52 46.82179 13.77571 29673 ft 480 kts 69°
2026-04-26 19:53 46.83338 13.82128 29551 ft 478 kts 69°
2026-04-26 19:53 46.84493 13.86681 29390 ft 478 kts 69°
2026-04-26 19:53 46.85647 13.91234 29264 ft 477 kts 69°
2026-04-26 19:53 46.86795 13.95775 29140 ft 476 kts 69°
2026-04-26 19:54 46.87949 14.00349 28984 ft 486 kts 69°
2026-04-26 19:54 46.89127 14.05035 28861 ft 497 kts 68°
2026-04-26 19:54 46.90325 14.09808 28722 ft 503 kts 68°
2026-04-26 19:54 46.91532 14.14616 28576 ft 503 kts 68°
2026-04-26 19:55 46.92737 14.19426 28467 ft 505 kts 68°
2026-04-26 19:55 46.93947 14.24267 28329 ft 506 kts 69°
2026-04-26 19:55 46.95152 14.29102 28199 ft 506 kts 69°
2026-04-26 19:55 46.96355 14.33938 28065 ft 506 kts 69°
2026-04-26 19:56 46.97559 14.38789 27931 ft 507 kts 69°
2026-04-26 19:56 46.98760 14.43643 27816 ft 507 kts 69°
2026-04-26 19:56 46.99961 14.48502 27694 ft 508 kts 69°
2026-04-26 19:56 47.01158 14.53363 27571 ft 507 kts 69°
2026-04-26 19:57 47.02352 14.58217 27484 ft 507 kts 69°
2026-04-26 19:57 47.03543 14.63068 27455 ft 504 kts 69°
2026-04-26 19:57 47.04708 14.67831 27324 ft 488 kts 69°
2026-04-26 19:57 47.05829 14.72425 27188 ft 470 kts 69°
2026-04-26 19:58 47.06911 14.76869 27083 ft 457 kts 69°
2026-04-26 19:58 47.07987 14.81284 26969 ft 463 kts 69°
2026-04-26 19:58 47.09070 14.85734 26848 ft 464 kts 69°
2026-04-26 19:58 47.10151 14.90185 26717 ft 461 kts 69°
2026-04-26 19:59 47.11223 14.94614 26578 ft 460 kts 69°
2026-04-26 19:59 47.12293 14.99049 26467 ft 460 kts 69°
2026-04-26 19:59 47.13356 15.03462 26356 ft 458 kts 69°
2026-04-26 19:59 47.14416 15.07871 26236 ft 457 kts 69°
2026-04-26 20:00 47.15471 15.12267 26108 ft 457 kts 69°
2026-04-26 20:00 47.16526 15.16670 25988 ft 456 kts 69°
2026-04-26 20:00 47.17574 15.21056 25871 ft 455 kts 69°
2026-04-26 20:00 47.18622 15.25445 25748 ft 454 kts 69°
2026-04-26 20:01 47.19663 15.29815 25633 ft 453 kts 70°
2026-04-26 20:01 47.20703 15.34192 25503 ft 454 kts 70°
2026-04-26 20:01 47.21742 15.38574 25278 ft 452 kts 70°
2026-04-26 20:01 47.22787 15.42987 25030 ft 450 kts 70°
2026-04-26 20:02 47.23811 15.47324 24802 ft 448 kts 70°
2026-04-26 20:02 47.24834 15.51663 24569 ft 449 kts 70°
2026-04-26 20:02 47.25852 15.55992 24345 ft 447 kts 70°
2026-04-26 20:02 47.26526 15.58858 24180 ft 445 kts 70°
2026-04-26 20:03 47.27873 15.64603 23775 ft 443 kts 70°
2026-04-26 20:03 47.28866 15.68851 23122 ft 443 kts 70°
2026-04-26 20:03 47.29865 15.73129 22534 ft 440 kts 70°
2026-04-26 20:03 47.30848 15.77354 21940 ft 432 kts 70°
2026-04-26 20:04 47.31826 15.81566 21352 ft 425 kts 70°
2026-04-26 20:04 47.32775 15.85654 20770 ft 418 kts 70°
2026-04-26 20:04 47.33705 15.89674 20201 ft 412 kts 70°
2026-04-26 20:04 47.34611 15.93590 19525 ft 407 kts 69°
2026-04-26 20:05 47.35541 15.97623 18558 ft 412 kts 70°
2026-04-26 20:05 47.36361 16.01596 17800 ft 406 kts 69°
2026-04-26 20:05 47.37567 16.05337 16643 ft 406 kts 53°
2026-04-26 20:05 47.39412 16.08432 15792 ft 398 kts 37°
2026-04-26 20:06 47.41686 16.10509 15525 ft 373 kts 20°
2026-04-26 20:06 47.44153 16.11472 15013 ft 357 kts
2026-04-26 20:06 47.46596 16.11351 14362 ft 348 kts 352°
2026-04-26 20:06 47.49010 16.11112 13604 ft 347 kts 356°
2026-04-26 20:07 47.51411 16.11361 12901 ft 346 kts
2026-04-26 20:07 47.53752 16.12124 12133 ft 346 kts 15°
2026-04-26 20:07 47.55871 16.13840 11388 ft 352 kts 34°
2026-04-26 20:07 47.57496 16.16585 10708 ft 359 kts 54°
2026-04-26 20:08 47.58445 16.20009 10237 ft 357 kts 70°
2026-04-26 20:08 47.59041 16.23490 10014 ft 340 kts 73°
2026-04-26 20:08 47.59560 16.26800 9837 ft 321 kts 72°
2026-04-26 20:08 47.60077 16.29936 9434 ft 309 kts 71°
2026-04-26 20:09 47.60614 16.32943 9005 ft 301 kts 70°
2026-04-26 20:09 47.61179 16.35953 8852 ft 300 kts 70°
2026-04-26 20:09 47.61747 16.38919 8722 ft 299 kts 70°
2026-04-26 20:09 47.62316 16.41879 8589 ft 298 kts 70°
2026-04-26 20:10 47.62881 16.44827 8475 ft 297 kts 70°
2026-04-26 20:10 47.63437 16.47736 8340 ft 297 kts 70°
2026-04-26 20:10 47.63998 16.50676 8213 ft 296 kts 70°
2026-04-26 20:10 47.64561 16.53646 8089 ft 294 kts 70°
2026-04-26 20:11 47.65114 16.56558 7953 ft 294 kts 70°
2026-04-26 20:11 47.65661 16.59444 7853 ft 294 kts 70°
2026-04-26 20:11 47.66219 16.62394 7721 ft 293 kts 70°
2026-04-26 20:12 47.67311 16.68179 7470 ft 290 kts 70°
2026-04-26 20:12 47.67896 16.71032 7334 ft 287 kts 63°
2026-04-26 20:12 47.69029 16.73369 7214 ft 276 kts 34°
2026-04-26 20:12 47.70722 16.74488 7041 ft 264 kts
2026-04-26 20:13 47.72524 16.74334 6745 ft 258 kts 346°
2026-04-26 20:13 47.74246 16.73681 6418 ft 254 kts 341°
2026-04-26 20:13 47.75946 16.72940 6109 ft 255 kts 342°
2026-04-26 20:13 47.77659 16.72230 5940 ft 253 kts 343°
2026-04-26 20:14 47.79366 16.71520 6051 ft 256 kts 342°
2026-04-26 20:14 47.81073 16.70808 6148 ft 249 kts 342°
2026-04-26 20:14 47.82670 16.70143 6054 ft 229 kts 342°
2026-04-26 20:14 47.84158 16.69519 5894 ft 216 kts 342°
2026-04-26 20:15 47.85562 16.68931 5693 ft 205 kts 343°
2026-04-26 20:15 47.86909 16.68368 5459 ft 198 kts 343°
2026-04-26 20:15 47.88213 16.67820 5234 ft 191 kts 343°
2026-04-26 20:15 47.89472 16.67292 4972 ft 185 kts 344°
2026-04-26 20:16 47.90699 16.66778 4707 ft 181 kts 345°
2026-04-26 20:16 47.91897 16.66277 4439 ft 177 kts 345°
2026-04-26 20:16 47.93067 16.65785 4231 ft 171 kts 345°
2026-04-26 20:16 47.94164 16.65324 4001 ft 155 kts 346°
2026-04-26 20:17 47.95163 16.64917 3722 ft 145 kts 346°
2026-04-26 20:17 47.96161 16.64533 3426 ft 152 kts 349°
2026-04-26 20:17 47.97193 16.64158 3141 ft 150 kts 349°
2026-04-26 20:17 47.97856 16.63901 2944 ft 148 kts 349°
2026-04-26 20:18 47.99175 16.63308 2563 ft 149 kts 347°
2026-04-26 20:18 48.00161 16.62852 2344 ft 147 kts 348°
2026-04-26 20:18 48.01143 16.62412 2182 ft 148 kts 349°
2026-04-26 20:18 48.02147 16.62023 2016 ft 149 kts 351°
2026-04-26 20:19 48.03142 16.61610 1857 ft 149 kts 347°
2026-04-26 20:19 48.04129 16.61128 1657 ft 149 kts 347°
2026-04-26 20:19 48.05124 16.60727 1409 ft 148 kts 351°
2026-04-26 20:19 48.06109 16.60333 1187 ft 144 kts 347°
2026-04-26 20:20 48.07066 16.59924 1029 ft 143 kts 347°
2026-04-26 20:20 48.08028 16.59489 814 ft 144 kts 346°
2026-04-26 20:20 48.08980 16.59082 639 ft 142 kts 346°
2026-04-26 20:20 48.09783 16.58745 634 ft 91 kts 344°
2026-04-26 20:21 48.10234 16.58551 620 ft 56 kts 343°
2026-04-26 20:21 48.10581 16.58408 618 ft 47 kts 344°
2026-04-26 20:21 48.10866 16.58288 627 ft 38 kts 339°
2026-04-26 20:21 48.11047 16.58050 625 ft 33 kts 300°
2026-04-26 20:22 48.11112 16.57858 625 ft 29 kts 293°
2026-04-26 20:22 48.11213 16.57545 623 ft 23 kts 296°
2026-04-26 20:22 48.11260 16.57404 631 ft 22 kts 298°
2026-04-26 20:22 48.11373 16.57371 631 ft 17 kts 22°
2026-04-26 20:23 48.11461 16.57278 628 ft 17 kts 298°
2026-04-26 20:23 48.11514 16.57113 623 ft 19 kts 295°
2026-04-26 20:23 48.11575 16.56933 629 ft 20 kts 297°
2026-04-26 20:23 48.11637 16.56744 618 ft 21 kts 294°
2026-04-26 20:24 48.11702 16.56563 617 ft 1 kts 301°
2026-04-26 20:24 48.11714 16.56529 616 ft 7 kts 296°
2026-04-26 20:24 48.11757 16.56492 617 ft 9 kts 340°
2026-04-26 20:24 48.11803 16.56497 616 ft 0 kts 21°